Location: Augirein
(42.9320°N, 0.9181°E)
Time: 14:49:22
(UTC+00:00)

Cosmos 1892 - Pass Details

Date: 20 June 2021
Orbit: 501 x 524 km, 82.5° (Epoch: 04 August)

Event Time Altitude Azimuth Distance (km) Brightness Sun altitude
Exits shadow 01:21:21 21° 281° (W) 1,213 4.4 -20.9°
Maximum altitude 01:21:38 21° 287° (WNW) 1,207 4.5 -20.9°
Drops below altitude 10° 01:24:40 10° 338° (NNW) 1,773 6.0 -20.7°
Sets 01:27:13 0° 355° (N) 2,666 7.4 -20.5°
